Hourly Weather Saurimo

Today, 10 August, Monday

Time Temperature Precipitation Wind Pressure Humidity
00:00 +22°C° 0 mm 3 mps 671 mmHg 31%
01:00 +21°C° 0 mm 3 mps 671 mmHg 35%
02:00 +20°C° 0 mm 3 mps 670 mmHg 35%
03:00 +20°C° 0 mm 3 mps 670 mmHg 36%
04:00 +19°C° 0 mm 3 mps 670 mmHg 36%
05:00 +20°C° 0 mm 3 mps 670 mmHg 34%
06:00 +21°C° 0 mm 3 mps 671 mmHg 33%
07:00 +22°C° 0 mm 3 mps 671 mmHg 31%
08:00 +26°C° 0 mm 3 mps 672 mmHg 26%
09:00 +29°C° 0 mm 3 mps 672 mmHg 22%
10:00 +34°C° 0 mm 4 mps 673 mmHg 17%
11:00 +35°C° 0 mm 3 mps 672 mmHg 16%
12:00 +36°C° 0 mm 3 mps 672 mmHg 14%
13:00 +37°C° 0 mm 3 mps 671 mmHg 13%
14:00 +37°C° 0 mm 3 mps 671 mmHg 13%
15:00 +37°C° 0 mm 3 mps 670 mmHg 13%
16:00 +36°C° 0 mm 3 mps 669 mmHg 13%
17:00 +33°C° 0 mm 3 mps 669 mmHg 16%
18:00 +29°C° 0 mm 2 mps 669 mmHg 18%
19:00 +26°C° 0 mm 2 mps 669 mmHg 20%
20:00 +26°C° 0 mm 2 mps 669 mmHg 21%
21:00 +25°C° 0 mm 2 mps 670 mmHg 21%
22:00 +24°C° 0 mm 2 mps 670 mmHg 22%
23:00 +23°C° 0 mm 2 mps 670 mmHg 23%

Tomorrow, 11 August, Tuesday

Time Temperature Precipitation Wind Pressure Humidity
00:00 +21°C° 0 mm 2 mps 670 mmHg 24%
01:00 +21°C° 0 mm 3 mps 670 mmHg 24%
02:00 +20°C° 0 mm 2 mps 670 mmHg 25%
03:00 +19°C° 0 mm 2 mps 669 mmHg 26%
04:00 +19°C° 0 mm 2 mps 669 mmHg 27%
05:00 +20°C° 0 mm 1 mps 670 mmHg 27%
06:00 +20°C° 0 mm 1 mps 671 mmHg 27%
07:00 +21°C° 0 mm 1 mps 671 mmHg 27%
08:00 +24°C° 0 mm 1 mps 672 mmHg 23%
09:00 +28°C° 0 mm 2 mps 672 mmHg 19%
10:00 +33°C° 0 mm 3 mps 673 mmHg 15%
11:00 +34°C° 0 mm 3 mps 673 mmHg 13%
12:00 +36°C° 0 mm 2 mps 672 mmHg 12%
13:00 +38°C° 0 mm 2 mps 672 mmHg 10%
14:00 +38°C° 0 mm 2 mps 671 mmHg 10%
15:00 +36°C° 0 mm 1 mps 670 mmHg 10%
16:00 +36°C° 0 mm 1 mps 670 mmHg 10%
17:00 +32°C° 0 mm 1 mps 669 mmHg 13%
18:00 +29°C° 0 mm 1 mps 669 mmHg 16%
19:00 +23°C° 0 mm 0 mps 669 mmHg 19%
20:00 +25°C° 0 mm 1 mps 669 mmHg 20%
21:00 +24°C° 0 mm 1 mps 670 mmHg 21%
22:00 +24°C° 0 mm 1 mps 670 mmHg 21%
23:00 +23°C° 0 mm 1 mps 670 mmHg 22%

Day after tomorrow, 12 August, Wednesday

Time Temperature Precipitation Wind Pressure Humidity
00:00 +22°C° 0 mm 1 mps 670 mmHg 24%
01:00 +21°C° 0 mm 1 mps 669 mmHg 25%
02:00 +20°C° 0 mm 1 mps 669 mmHg 25%
03:00 +20°C° 0 mm 1 mps 669 mmHg 26%
04:00 +19°C° 0 mm 1 mps 669 mmHg 27%
05:00 +19°C° 0 mm 2 mps 670 mmHg 25%
06:00 +20°C° 0 mm 2 mps 671 mmHg 23%
07:00 +21°C° 0 mm 2 mps 671 mmHg 22%
08:00 +25°C° 0 mm 2 mps 672 mmHg 18%
09:00 +29°C° 0 mm 2 mps 673 mmHg 15%
10:00 +32°C° 0 mm 2 mps 673 mmHg 11%
11:00 +36°C° 0 mm 2 mps 673 mmHg 10%
12:00 +38°C° 0 mm 2 mps 672 mmHg 9%
13:00 +40°C° 0 mm 2 mps 672 mmHg 8%
14:00 +39°C° 0 mm 2 mps 671 mmHg 8%
15:00 +39°C° 0 mm 2 mps 670 mmHg 8%
16:00 +37°C° 0 mm 1 mps 670 mmHg 8%
17:00 +34°C° 0 mm 1 mps 669 mmHg 10%
18:00 +30°C° 0 mm 1 mps 669 mmHg 12%
19:00 +27°C° 0 mm 1 mps 669 mmHg 14%
20:00 +26°C° 0 mm 1 mps 669 mmHg 16%
21:00 +24°C° 0 mm 1 mps 669 mmHg 17%
22:00 +23°C° 0 mm 1 mps 670 mmHg 18%
23:00 +23°C° 0 mm 1 mps 670 mmHg 18%

13 August, Thursday

Time Temperature Precipitation Wind Pressure Humidity
00:00 +21°C° 0 mm 2 mps 669 mmHg 19%
01:00 +20°C° 0 mm 2 mps 669 mmHg 19%
02:00 +20°C° 0 mm 1 mps 669 mmHg 20%
03:00 +19°C° 0 mm 1 mps 669 mmHg 22%
04:00 +18°C° 0 mm 1 mps 669 mmHg 23%
05:00 +19°C° 0 mm 1 mps 669 mmHg 22%
06:00 +19°C° 0 mm 2 mps 670 mmHg 21%
07:00 +20°C° 0 mm 2 mps 671 mmHg 20%
08:00 +25°C° 0 mm 3 mps 671 mmHg 17%
09:00 +29°C° 0 mm 4 mps 672 mmHg 13%
10:00 +35°C° 0 mm 5 mps 673 mmHg 10%
11:00 +36°C° 0 mm 4 mps 672 mmHg 9%
12:00 +38°C° 0 mm 4 mps 671 mmHg 8%
13:00 +39°C° 0 mm 3 mps 671 mmHg 8%
14:00 +39°C° 0 mm 3 mps 670 mmHg 8%
15:00 +38°C° 0 mm 3 mps 669 mmHg 8%
16:00 +38°C° 0 mm 3 mps 669 mmHg 8%
17:00 +35°C° 0 mm 2 mps 669 mmHg 10%
18:00 +30°C° 0 mm 2 mps 668 mmHg 12%
19:00 +27°C° 0 mm 1 mps 668 mmHg 14%
20:00 +26°C° 0 mm 1 mps 669 mmHg 15%
21:00 +25°C° 0 mm 2 mps 669 mmHg 16%
22:00 +24°C° 0 mm 2 mps 669 mmHg 17%
23:00 +23°C° 0 mm 2 mps 669 mmHg 18%

14 August, Friday

Time Temperature Precipitation Wind Pressure Humidity
00:00 +21°C° 0 mm 2 mps 668 mmHg 18%
01:00 +21°C° 0 mm 1 mps 668 mmHg 19%
02:00 +20°C° 0 mm 1 mps 668 mmHg 20%
03:00 +19°C° 0 mm 1 mps 668 mmHg 21%
04:00 +18°C° 0 mm 1 mps 668 mmHg 22%
05:00 +18°C° 0 mm 2 mps 669 mmHg 22%
06:00 +19°C° 0 mm 2 mps 669 mmHg 21%
07:00 +20°C° 0 mm 3 mps 670 mmHg 20%
08:00 +25°C° 0 mm 3 mps 671 mmHg 17%
09:00 +29°C° 0 mm 4 mps 671 mmHg 14%
10:00 +34°C° 0 mm 4 mps 672 mmHg 11%
11:00 +35°C° 0 mm 4 mps 671 mmHg 10%
12:00 +37°C° 0 mm 3 mps 671 mmHg 9%
13:00 +39°C° 0 mm 3 mps 670 mmHg 8%
14:00 +38°C° 0 mm 3 mps 669 mmHg 8%
15:00 +38°C° 0 mm 3 mps 669 mmHg 9%
16:00 +38°C° 0 mm 2 mps 668 mmHg 9%
17:00 +34°C° 0 mm 2 mps 668 mmHg 11%
18:00 +30°C° 0 mm 2 mps 667 mmHg 13%
19:00 +27°C° 0 mm 1 mps 667 mmHg 16%
20:00 +26°C° 0 mm 1 mps 667 mmHg 16%
21:00 +24°C° 0 mm 1 mps 667 mmHg 17%
22:00 +23°C° 0 mm 1 mps 667 mmHg 18%
23:00 +22°C° 0 mm 1 mps 667 mmHg 19%

15 August, Saturday

Time Temperature Precipitation Wind Pressure Humidity
00:00 +22°C° 0 mm 1 mps 667 mmHg 19%
01:00 +21°C° 0 mm 1 mps 667 mmHg 20%
02:00 +21°C° 0 mm 1 mps 667 mmHg 21%
03:00 +20°C° 0 mm 1 mps 667 mmHg 21%
04:00 +19°C° 0 mm 2 mps 667 mmHg 22%
05:00 +20°C° 0 mm 1 mps 668 mmHg 22%
06:00 +21°C° 0 mm 1 mps 668 mmHg 21%
07:00 +22°C° 0 mm 1 mps 669 mmHg 21%
08:00 +26°C° 0 mm 1 mps 670 mmHg 17%
09:00 +30°C° 0 mm 1 mps 670 mmHg 14%
10:00 +35°C° 0 mm 2 mps 671 mmHg 11%
11:00 +37°C° 0 mm 2 mps 670 mmHg 11%
12:00 +39°C° 0 mm 2 mps 670 mmHg 11%
13:00 +41°C° 0 mm 1 mps 669 mmHg 11%
14:00 +40°C° 0 mm 1 mps 669 mmHg 11%
15:00 +39°C° 0 mm 1 mps 668 mmHg 11%
16:00 +39°C° 0 mm 1 mps 667 mmHg 12%
17:00 +34°C° 0 mm 1 mps 667 mmHg 15%
18:00 +31°C° 0 mm 1 mps 667 mmHg 19%
19:00 +27°C° 0 mm 1 mps 667 mmHg 23%
20:00 +26°C° 0 mm 1 mps 667 mmHg 25%
21:00 +23°C° 0 mm 0 mps 667 mmHg 28%
22:00 +22°C° 0 mm 0 mps 667 mmHg 31%
23:00 +21°C° 0 mm 0 mps 667 mmHg 32%
Show more